Location: Newark
(7.0858°N, 171.3717°E)
Time: 05:41:13
(UTC+00:00)

Courier 1B - Pass Details

Date: 29 November 2020
Orbit: 962 x 1209 km, 28.3° (Epoch: 20 January)

Event Time Altitude Azimuth Distance (km) Brightness Sun altitude
Rises 11:51:27 0° 306° (NW) 3,754 - -73.6°
Reaches altitude 10° 11:56:14 10° 335° (NNW) 2,863 - -74.1°
Maximum altitude 11:58:51 12° 358° (N) 2,736 - -74.4°
Drops below altitude 10° 12:01:31 10° 20° (NNE) 2,934 - -74.6°
Sets 12:06:35 0° 49° (NE) 3,959 - -75.0°
